WETTERDATEN

HEUTE
Time Temp. Taup. r.Fe. Druck
00:08 10.5 5.5 71 1028.4
00:18 10.6 5.4 70 1028.4
00:28 10.6 4.9 68 1028.4
00:38 10.6 5.2 69 1028.5
00:48 10.6 5.2 69 1028.5
00:58 10.6 5.4 70 1028.5
01:08 10.6 5.8 72 1028.4
01:19 10.7 5.9 72 1028.3
01:28 10.7 5.7 71 1028.5
01:38 10.7 5.3 69 1028.4
01:49 10.7 5.9 72 1028.5
01:59 10.7 5.9 72 1028.5
02:09 10.7 5.9 72 1028.5
02:19 10.7 5.5 70 1028.5
02:29 10.7 5.5 70 1028.5
02:39 10.7 5.7 71 1028.6
02:49 10.7 5.7 71 1028.5
03:00 10.7 5.9 72 1028.5
03:10 10.7 6.1 73 1028.4
03:20 10.7 6.1 73 1028.5
03:29 10.7 6.1 73 1028.5
03:40 10.6 6.2 74 1028.4
03:50 10.6 6.4 75 1028.4
04:00 10.5 6.3 75 1028.4
04:10 10.6 6.4 75 1028.4
04:21 10.5 6.5 76 1028.4
04:30 10.5 6.5 76 1028.4
04:40 10.5 6.5 76 1028.4
04:51 10.5 6.6 77 1028.4
05:01 10.5 6.6 77 1028.4
05:11 10.5 6.6 77 1028.4
05:21 10.5 6.6 77 1028.5
05:31 10.4 6.7 78 1028.4
05:41 10.4 6.7 78 1028.4
05:51 10.4 6.9 79 1028.5
06:02 10.4 6.9 79 1028.3
06:12 10.4 6.7 78 1028.3
06:21 10.5 6.8 78 1028.4
06:31 10.5 6.8 78 1028.4
06:42 10.4 6.7 78 1028.4
06:52 10.4 6.7 78 1028.4
07:02 10.4 6.7 78 1028.5
07:12 10.4 6.7 78 1028.5
07:22 10.4 6.5 77 1028.6
07:32 10.4 6.7 78 1028.7
07:42 10.4 6.4 76 1028.8
07:53 10.4 6.5 77 1028.7
08:03 10.4 6.4 76 1028.8
08:12 10.4 6.5 77 1028.8
08:23 10.4 6.5 77 1028.8
08:33 10.4 6.4 76 1028.8
08:43 10.4 6.4 76 1028.9
08:53 10.5 6.5 76 1028.8
09:03 10.5 6.3 75 1028.9
09:13 10.6 6.2 74 1028.8
09:23 10.7 6.5 75 1028.9
09:33 10.7 6.5 75 1028.9
09:44 10.8 6.4 74 1028.9
09:54 10.8 6.2 73 1029
10:03 10.8 5.8 71 1029
10:14 10.7 5.9 72 1029.1
10:24 10.7 5.7 71 1029.1
10:34 10.7 5.5 70 1029.2
10:44 10.7 5.5 70 1029.2
10:54 10.7 5.7 71 1029.2
11:04 10.6 5.4 70 1029.2

TAGESSTATISTIK

2021-09-20
TEMPERATUR
MITTEL
10.6
MAXIMUM
10.8
09:44
MINIMUM
10.4
05:31
LUFTDRUCK
MITTEL
1028.6
MAXIMUM
1029.2
10:34
MINIMUM
1028.3
01:19
TAUPUNKT
MITTEL
6.2
MAXIMUM
6.9
05:51
MINIMUM
4.9
00:28
FEUCHTIGKEIT
MITTEL
74
MAXIMUM
79
05:51
MINIMUM
68
00:28
TEMPERATUR (°C)
MINIMUM
10.4
MAXIMUM
10.8
MITTEL
10.6
LUFTDRUCK (hpa)
MINIMUM
1028.3
MAXIMUM
1029.2
MITTEL
1028.6
MESSGERÄT